Regional Weather Roundup
Issued by NWS

Home | Current Version | Previous Version | Graphics & Text | Print | Product List | Glossary Off
Versions: 1 2 3 4 5 6 7 8 9 10 11 12 13 14 15 16 17 18 19 20 21 22 23 24 25 26 27 28 29 30 31 32 33 34 35 36 37 38 39 40 41 42 43 44 45 46 47 48 49 50

000
ASUS43 KMKX 240900
RWRWI

WISCONSIN REGIONAL WEATHER ROUNDUP
NATIONAL WEATHER SERVICE MILWAUKEE/SULLIVAN WI
400 AM CDT TUE MAY 24 2016

NOTE: "FAIR" INDICATES FEW OR NO CLOUDS BELOW 12,000 FEET WITH NO
SIGNIFICANT WEATHER AND/OR OBSTRUCTIONS TO VISIBILITY.

WIZ001-002-006>008-014>016-023>028-241000-
NORTHWEST WISCONSIN

CITY           SKY/WX    TMP DP  RH WIND       PRES   REMARKS
SUPERIOR ARPT  FOG       58  58 100 NE3       29.81R VSB 1
ASHLAND        CLOUDY    59  59 100 CALM      29.82S FOG
HAYWARD        LGT RAIN  59  57  93 CALM      29.83S
SIREN          CLOUDY    61  59  94 S3        29.80S
CUMBERLAND     CLOUDY    59  55  88 SE3       29.83R
RICE LAKE      CLOUDY    63  59  88 SE7       29.85R
CHETEK         LGT RAIN  62  61  98 SE8       29.84S
LADYSMITH      CLOUDY    64  61  90 SE5       29.86S
EAU CLAIRE     NOT AVBL
MENOMONIE      MOCLDY    63  63  99 E5        29.83S
NEW RICHMOND   CLOUDY    61  60  96 CALM      29.82S
OSCEOLA        CLOUDY    63  63 100 SE6       29.83S
$$

WIZ003>005-009-010-017-018-241000-
NORTH CENTRAL WISCONSIN

CITY           SKY/WX    TMP DP  RH WIND       PRES   REMARKS
MANITOWISH WTR CLOUDY    60  60 100 CALM      29.86S FOG
ARBOR VITAE    RAIN      63  59  87 SW5       29.87R
WOODRUFF       RAIN      63  59  87 SW5       29.87R
RHINELANDER    LGT RAIN  61  57  87 SW6       29.90R
EAGLE RIVER    LGT RAIN  62  52  71 SW3       29.87S
LAND O LAKES   MOCLDY    59  57  91 CALM      29.87S
PHILLIPS       DRIZZLE   62  60  95 S8        29.86R
TOMAHAWK       RAIN      61  59  92 W3        29.89R
MEDFORD        LGT RAIN  60  60 100 CALM      29.88R
MERRILL        CLOUDY    63  56  80 CALM      29.89R
$$

WIZ029-030-035-036-043>047-241000-
CENTRAL WISCONSIN

CITY           SKY/WX    TMP DP  RH WIND       PRES   REMARKS
WAUSAU         MOCLDY    63  52  67 E3        29.87R
MOSINEE        CLOUDY    61  52  72 CALM      29.90R
MARSHFIELD     CLOUDY    62  57  83 CALM      29.87F
STEVENS POINT  CLOUDY    57  48  70 CALM      29.89S
WAUPACA        PTCLDY    55  49  81 CALM      29.90S
WAUTOMA        CLEAR     50  47  89 CALM      29.90R
WISC RAPIDS    MOCLDY    61  47  59 CALM      29.89S
CAMP DOUGLAS   NOT AVBL
$$

WIZ011>013-019>022-031-037>040-048>050-241000-
NORTHEAST WISCONSIN

CITY           SKY/WX    TMP DP  RH WIND       PRES   REMARKS
ANTIGO         CLOUDY    59  50  71 CALM      29.90S
SHAWANO        MOCLDY    63  50  62 CALM      29.89R
OCONTO         CLEAR     51  49  90 CALM      29.88R
STURGEON BAY   NOT AVBL
GREEN BAY      CLEAR     58  43  57 CALM      29.89S
MANITOWOC      NOT AVBL
APPLETON       CLEAR     57  43  58 S5        29.89R
CLINTONVILLE   PTCLDY    61  48  63 S7        29.89S
OSHKOSH        CLEAR     57  45  64 S9        29.90R
$$

WIZ032>034-041-042-053>061-241000-
SOUTHWEST WISCONSIN

CITY           SKY/WX    TMP DP  RH WIND       PRES   REMARKS
LA CROSSE      CLOUDY    67  59  75 CALM      29.85R
SPARTA         MOCLDY    62  56  80 CALM      29.87R
VIROQUA        CLOUDY    67  49  53 S7        29.88S
BOSCOBEL       CLOUDY    59  53  80 CALM      29.88R
PRAIRIE DU CHI CLOUDY    69  49  50 CALM      29.86S
PLATTEVILLE    CLOUDY    63  50  63 S7        29.90S
$$

WIZ056-057-062-063-064-067-068-241000-
SOUTH CENTRAL WISCONSIN

CITY           SKY/WX    TMP DP  RH WIND       PRES   REMARKS
REEDSBURG      CLOUDY    61  49  64 CALM      29.88F
BARABOO/DELLS  CLOUDY    64  46  50 SW7       29.89S
LONE ROCK      NOT AVBL
MINERAL POINT  CLOUDY    63  46  55 S7        29.91S
MADISON        CLEAR     60  50  69 S6        29.91S
MIDDLETON      CLEAR     57  49  74 CALM      29.92R
WATERTOWN      CLEAR     56  46  70 S3        29.92R
MONROE         CLEAR     61  46  59 S7        29.92S
JANESVILLE     CLOUDY    59  46  63 S3        29.93R
$$

WIZ051-052-058>065-066-070>072-241000-
SOUTHEAST WISCONSIN

CITY           SKY/WX    TMP DP  RH WIND       PRES   REMARKS
MILWAUKEE      CLEAR     59  42  53 SW7       29.93R
WAUKESHA       CLEAR     57  39  51 SW6       29.95R
MILWAUKEE/TIMM CLEAR     55  37  50 SW3       29.94R
RACINE         CLEAR     61  43  51 SW8       29.95R
BURLINGTON     CLOUDY    50  45  81 SW3       29.94R
KENOSHA        CLEAR     60  45  57 SW6       29.94R
FOND DU LAC    CLEAR     57  43  59 S5        29.91R
SHEBOYGAN      CLEAR     51  42  71 SW3       29.92R
WEST BEND      CLEAR     55  37  50 CALM      29.92S
JUNEAU         CLEAR     59  45  60 S6        29.93S
$$

LSZ147-162-241000-
LAKE SUPERIOR

STATION/POSITION TIME  TEMP    WIND        PRES    WAVE
                       AIR SEA DIR/SP/G            HT/PER
                 (UTC) (F)     (DEG/KT/KT) (MB)    (FT/S)
W MID LAKE BUOY  0750   44 38  220/ 12/ 14 1009.5R   1
DEVILS ISLAND    0800   52     310/ 11/ 12 1010.4R
PORT WING        0800          360/  8/ 10 1009.8R
SAXON HARBOR     0800   61     190/  4/  6 1008.8S
$$

LMZ867-665-643>646-241000-
LAKE MICHIGAN

STATION/POSITION TIME  TEMP    WIND        PRES    WAVE
                       AIR SEA DIR/SP/G            HT/PER
                 (UTC) (F)     (DEG/KT/KT) (MB)    (FT/S)
CHAMBERS ISLAND  0840   62     180/  7/ 12 1011.5S
N MID LAKE BUOY  0750   48 44  200/ 12/ 14 1011.6F   2/ 4
NORTHPORT PIER   0800   61     170/  5/ 12 1011.5F
SISTER BAY       0804   64     190/ 17/ 22   N/A
ALGOMA LAKESHORE 0701          210/ 13/ 14   N/A
KEWAUNEE LAKESHO 0800   53     170/  9/  9 1011.6F
SHEBOYGAN LAKESH 0800   56     180/  8/  9 1013.1F
PORT WASHINGTON  0840   54      CALM  /  1 1013.9R
S MID LAKE BUOY  0750   54 48  170/ 10/ 12 1013.8R   1
KENOSHA   LAKESH 0800   60     200/  7/  8 1013.5R
$$

TC  - TEMPERATURE IN CELSIUS
VSB - VISIBILITY IN STATUTE MILES
WCI - WIND CHILL INDEX
HX  - HEAT INDEX





USA.gov is the U.S. government's official web portal to all federal, state and local government web resources and services.